Theta_e
311 310 310 310 310 309 309 310 310 311 311 311 311 310 308 308 307 305 308 312 305 301 304 304 304 302 303 304 300 305 303 304 302 297 295 296 296 298 297 299 298 296 295 296 296 293 290 309 306 302 313 315 314 311
309 310 310 309 309 309 309 309 310 311 311 310 310 309 308 307 307 305 305 309 309 303 304 307 307 308 306 306 303 306 305 302 303 298 300 299 295 297 299 292 302 295 299 297 300 299 307 311 313 317 317 313 311 309
311 310 310 309 309 308 308 308 309 310 310 310 309 309 307 307 306 305 305 307 305 299 299 301 301 306 308 308 310 301 304 306 305 309 303 301 297 300 294 296 299 303 306 301 302 305 305 309 313 312 311 311 311 310
309 310 309 309 308 308 308 308 309 310 309 309 308 308 308 307 307 305 305 307 305 302 296 299 307 304 308 308 306 307 306 308 308 306 301 298 296 301 296 298 297 299 301 299 300 303 306 307 309 308 308 308 307 308
309 310 309 308 308 307 307 308 309 309 308 308 308 308 308 308 308 306 307 307 307 300 295 298 304 305 306 306 304 304 304 303 301 298 296 294 297 298 298 298 295 301 300 296 296 304 303 304 307 307 306 306 307 307
308 309 308 308 307 307 307 307 309 308 308 308 308 307 308 308 306 304 297 305 307 305 298 294 303 302 304 305 303 303 303 301 300 297 296 298 304 299 292 292 300 302 305 306 302 307 307 308 308 307 306 307 307 307
308 308 308 308 307 307 307 308 307 307 307 308 307 307 307 307 305 298 297 303 305 306 297 294 295 301 304 304 302 301 304 301 300 298 296 296 297 298 294 291 297 299 302 303 306 306 304 304 304 307 308 308 309 310
307 307 307 307 306 306 307 307 307 307 307 307 307 307 306 305 302 299 304 304 306 300 299 293 295 297 304 298 297 302 298 299 298 296 297 295 297 296 291 296 298 300 301 303 304 306 306 307 308 309 311 312 310 310
306 306 306 306 307 306 306 306 307 306 306 306 306 305 302 301 297 302 304 302 307 301 294 294 292 292 303 301 302 300 300 291 299 294 294 295 293 290 295 299 299 301 301 302 305 306 306 306 308 309 311 312 312 312
306 306 306 306 306 305 306 306 306 305 305 305 301 297 294 302 305 305 301 298 297 297 297 292 297 295 300 298 297 298 297 293 290 295 299 295 293 299 301 303 304 305 305 306 303 304 305 305 308 309 311 311 313 314
306 306 306 306 306 305 305 305 305 305 303 300 297 296 303 306 301 299 292 291 293 290 294 295 295 294 301 294 295 297 296 295 289 294 295 293 293 300 306 305 308 309 308 310 310 311 311 311 310 311 312 313 314 313
305 305 305 305 305 305 305 304 304 302 301 301 301 303 301 298 295 290 289 291 290 289 295 294 295 296 299 301 295 297 293 296 288 299 295 290 298 304 306 306 308 310 310 309 311 310 310 310 311 312 312 313 315 317
304 304 304 304 304 305 304 303 304 304 305 304 297 294 294 293 285 284 283 287 288 293 296 296 294 296 297 299 295 293 290 290 298 293 290 294 304 306 307 308 308 310 310 309 309 310 309 309 310 311 311 314 317 317
303 304 304 304 304 304 303 303 303 303 302 295 291 285 287 285 287 289 291 292 296 296 296 297 296 294 296 294 293 288 293 294 289 287 290 301 303 305 306 307 307 307 307 307 307 307 306 306 309 312 310 310 309 310
303 303 303 303 303 303 302 302 300 304 299 293 292 285 287 293 294 295 297 297 298 300 299 298 298 299 296 293 294 292 289 288 290 291 299 305 306 307 307 307 306 306 306 305 305 305 306 307 307 306 307 308 309 310
303 302 302 302 303 302 301 300 301 302 298 294 292 290 293 292 293 295 296 296 299 299 300 299 294 292 291 292 290 288 287 287 294 298 299 307 307 308 308 308 308 307 305 305 307 308 307 305 305 306 307 308 308 308
301 298 302 302 301 300 301 301 300 294 293 290 291 295 296 294 295 296 297 298 302 300 294 296 289 288 295 290 289 292 291 297 302 303 305 309 308 308 309 308 307 307 306 307 307 307 307 307 306 306 304 305 306 307
299 302 302 301 301 300 301 300 296 293 288 292 290 293 294 296 296 298 299 301 301 298 297 293 297 291 289 287 290 295 298 302 307 306 306 307 308 309 309 307 308 307 306 306 308 308 307 305 304 304 305 305 305 305
300 301 302 301 302 298 295 295 297 289 291 293 294 297 298 297 299 300 301 304 303 303 300 297 291 290 291 295 297 298 300 301 301 304 309 310 309 309 308 308 306 307 307 307 307 308 308 307 306 306 306 307 305 306
301 301 301 299 301 299 292 295 299 293 292 294 296 295 296 296 297 299 301 303 301 299 294 292 293 295 297 299 301 301 302 303 301 304 305 306 310 309 307 306 306 308 308 308 308 305 309 309 309 310 310 309 308 307
300 300 299 299 300 299 297 295 293 296 295 294 298 298 297 299 298 298 298 300 296 292 292 296 297 299 303 303 303 303 303 304 305 305 305 304 308 307 307 308 310 310 308 306 305 306 307 310 311 314 311 312 311 308
299 300 300 299 295 295 295 298 295 299 295 295 294 296 292 292 292 293 296 292 291 294 297 297 298 300 301 300 301 303 304 305 308 309 302 305 303 305 306 308 308 307 307 307 306 306 307 308 307 307 309 308 308 309
300 300 298 296 291 290 289 298 291 292 288 288 288 287 288 290 292 295 291 293 295 298 298 298 297 299 299 300 300 302 305 307 308 307 307 306 306 306 310 311 312 308 307 308 309 308 306 297 301 304 307 311 309 307
299 294 289 288 289 287 292 289 292 290 291 289 291 290 292 293 295 290 291 293 296 297 295 295 297 298 299 297 299 303 306 308 309 306 307 307 305 305 307 308 312 310 309 309 309 309 309 305 301 304 304 304 304 308
287 287 288 285 290 287 286 288 289 289 289 290 289 290 294 297 292 292 291 293 296 296 298 299 297 296 295 298 300 302 308 308 305 304 307 307 305 304 309 309 312 314 312 308 307 308 308 307 306 305 304 303 301 301
285 291 290 291 291 289 290 287 287 288 289 288 289 292 296 293 289 289 293 296 297 298 299 300 299 300 297 300 301 304 308 308 307 304 306 306 306 307 308 308 309 311 316 312 309 308 308 307 306 302 299 297 292 299
287 289 293 298 295 294 292 294 294 292 289 288 290 291 291 287 288 290 294 295 295 296 298 298 299 299 298 299 302 305 305 307 308 307 309 309 308 310 309 308 308 313 316 314 311 309 307 305 302 301 299 300 299 300
294 292 289 293 293 294 289 288 287 287 287 289 289 288 287 286 284 289 291 294 294 295 296 297 297 299 300 300 301 302 304 305 307 308 308 309 309 310 313 313 313 292 307 303 311 312 310 307 304 301 299 298 298 300
294 297 296 291 292 290 289 287 287 289 291 289 288 287 286 291 291 289 291 293 296 296 296 296 298 301 301 302 303 303 304 303 303 302 302 302 302 305 311 312 312 313 311 308 288 298 309 307 304 302 301 300 299 301
294 298 293 291 289 288 290 291 291 294 294 294 293 292 292 292 293 295 293 293 293 294 299 301 302 301 299 298 299 300 303 304 305 304 303 304 305 307 310 311 310 311 312 310 307 304 293 301 297 300 299 299 299 299
301 300 294 293 291 295 295 297 298 297 295 294 296 293 291 292 294 295 294 293 294 296 296 297 300 303 301 300 301 300 300 304 305 306 307 308 310 309 310 312 312 311 311 310 309 307 305 303 301 299 299 299 298 299
299 296 295 291 294 298 299 296 294 293 293 292 292 295 294 292 288 291 294 293 292 292 291 293 296 299 302 305 306 306 291 305 306 306 307 308 309 310 311 311 313 313 311 309 308 306 305 302 300 299 299 299 301 302
299 299 298 296 295 295 298 297 294 293 293 292 292 293 292 290 286 291 296 295 293 293 294 295 298 300 303 304 305 305 297 307 302 290 288 287 287 293 305 310 313 312 311 309 307 306 304 302 300 299 299 299 301 302
Wind_Speed
30 29 30 30 29 28 27 26 25 25 25 24 22 20 18 15 12 8 4 3 7 7 8 2 5 6 5 4 8 3 4 6 5 7 10 11 11 12 15 17 17 14 10 10 9 13 17 15 17 16 6 4 6 10
26 29 30 30 30 29 28 26 25 26 27 25 23 21 19 15 11 8 4 3 5 6 5 5 7 9 7 7 6 4 5 1 2 4 4 5 9 9 14 14 12 14 12 9 7 5 18 15 13 10 5 5 7 8
28 26 28 30 31 30 28 26 25 26 27 25 24 21 20 16 13 11 4 3 4 6 9 10 9 10 8 7 6 5 3 8 1 4 6 6 10 9 11 12 14 13 11 6 13 14 14 11 4 10 16 16 13 6
28 27 30 32 31 30 28 27 26 28 28 25 24 22 18 16 12 11 3 2 5 5 6 4 4 6 5 9 10 8 6 5 5 5 7 9 10 9 12 15 16 12 14 12 17 16 16 14 12 15 18 18 17 17
26 29 32 33 32 31 29 27 25 28 28 26 24 21 18 14 11 6 2 4 3 5 4 2 4 7 5 6 8 8 7 6 6 7 8 10 11 13 12 14 15 12 13 11 13 16 17 16 18 22 19 18 18 18
25 32 34 33 32 30 29 27 28 30 29 27 25 22 17 16 14 7 4 6 4 3 5 3 7 6 6 8 7 6 7 6 8 8 8 11 14 8 9 13 16 14 16 17 17 18 19 18 18 19 21 20 20 19
31 35 34 34 32 30 29 30 33 31 29 26 23 20 17 15 7 1 2 3 3 3 4 4 4 7 9 8 7 6 7 6 6 8 11 13 13 10 13 18 19 21 21 21 20 20 20 21 18 21 21 20 21 21
35 34 33 33 32 30 31 33 34 30 28 25 21 18 15 12 3 4 4 1 3 1 5 3 4 7 5 6 6 5 4 4 4 6 8 9 9 11 13 17 21 21 21 20 19 19 21 21 22 22 21 19 19 18
35 34 33 32 32 35 35 33 33 31 28 25 23 20 9 4 3 4 5 2 2 3 4 4 6 5 5 1 3 1 1 4 7 10 12 8 10 9 11 15 18 18 17 19 18 19 19 20 20 20 21 20 18 16
35 35 34 35 36 35 35 35 34 31 29 27 16 7 6 5 20 14 3 5 5 5 5 5 9 3 8 5 4 2 4 6 9 12 11 14 14 20 21 22 19 20 21 20 22 19 18 15 19 19 19 14 16 17
35 35 37 36 37 37 36 34 33 30 24 9 4 4 10 15 6 3 3 5 6 4 6 7 9 6 7 6 5 4 2 4 5 5 5 7 12 10 8 3 17 14 12 9 12 16 14 16 16 16 18 19 18 19
37 36 37 38 37 36 35 33 31 13 8 6 10 10 8 3 4 5 5 5 5 6 10 8 7 8 2 2 4 6 4 3 7 5 4 5 7 7 3 7 11 6 11 14 15 16 15 19 18 18 19 23 23 20
36 36 35 35 35 33 32 31 16 16 16 14 8 4 4 4 4 7 8 5 6 4 6 6 4 3 4 2 4 4 5 6 6 5 6 9 10 11 12 14 14 16 14 15 14 15 19 20 19 21 18 17 18 18
34 33 32 32 31 29 26 21 2 8 9 3 5 4 4 5 7 6 9 7 5 5 6 6 7 4 3 4 5 3 6 6 5 5 12 5 8 12 12 12 15 17 15 13 17 18 19 16 18 16 10 9 11 14
31 30 28 25 24 19 13 7 3 2 3 3 5 4 7 6 9 8 3 6 6 3 3 2 2 1 3 4 4 5 4 6 6 5 6 4 4 8 10 8 12 10 12 13 15 15 15 9 7 6 6 6 6 3
28 26 19 20 16 14 10 5 4 2 1 1 1 3 5 6 5 3 3 2 4 7 3 3 1 3 6 4 5 6 7 8 4 5 10 9 11 11 10 12 10 9 11 12 14 10 4 6 6 6 6 10 8 11
18 8 17 15 11 7 5 2 2 3 3 2 4 5 2 5 1 3 4 4 4 1 3 2 4 7 3 5 7 7 7 9 8 7 9 11 10 11 12 11 10 10 9 6 8 7 7 7 8 9 12 15 15 16
17 15 17 14 10 6 4 2 2 3 4 5 5 8 6 4 4 2 2 5 2 3 4 3 2 3 4 5 5 6 8 7 8 8 9 9 12 11 9 11 9 7 7 6 8 3 5 8 12 9 13 15 15 17
16 14 14 11 3 4 4 4 2 3 6 5 7 2 1 2 3 7 6 4 3 2 1 2 5 4 5 5 7 4 4 7 8 12 10 10 10 9 11 8 3 8 5 7 7 2 3 7 7 7 7 9 10 10
17 12 6 1 6 3 3 3 3 3 3 4 4 4 4 3 1 2 4 3 4 3 4 4 4 6 3 5 6 7 7 7 7 10 9 7 7 10 8 0 4 5 5 7 7 7 7 5 6 6 7 9 11 10
12 4 1 4 3 2 3 1 2 2 4 4 5 4 3 4 4 2 2 3 2 3 4 6 7 9 4 5 5 7 7 5 8 8 9 9 7 7 7 3 4 5 6 6 7 5 6 6 5 4 7 8 11 12
9 6 3 3 2 4 3 3 2 1 2 3 3 2 1 2 2 2 3 2 2 4 5 7 8 5 5 6 7 6 9 9 12 8 10 7 5 6 6 1 2 4 5 5 7 7 6 6 5 7 6 10 12 11
6 1 2 4 3 1 3 1 3 3 3 2 1 2 2 3 3 5 3 3 2 4 3 1 2 3 6 6 9 9 9 11 7 7 6 6 3 9 5 2 3 5 4 4 4 4 6 6 7 7 7 7 9 9
6 2 2 2 4 2 2 2 2 3 2 3 3 4 3 2 6 3 2 4 3 4 3 4 3 2 2 4 5 5 5 6 5 8 3 7 7 10 6 6 6 6 5 4 4 4 6 5 6 7 8 9 8 8
2 3 3 4 3 3 4 4 5 4 4 3 2 2 1 1 4 3 3 3 3 3 4 5 4 3 2 4 5 7 11 6 4 5 5 7 2 4 5 6 7 5 7 5 5 5 5 7 6 7 8 9 9 10
3 3 2 2 4 3 4 3 2 2 3 1 1 1 1 2 4 4 3 3 2 2 2 1 2 3 4 7 3 5 3 6 7 5 7 6 4 7 7 8 8 6 5 8 6 7 8 8 8 11 10 10 7 8
3 4 4 3 3 3 2 2 3 2 4 5 4 4 3 2 3 3 3 5 4 4 5 4 5 5 4 5 5 4 6 7 5 5 7 8 8 6 0 7 9 6 7 8 9 9 9 10 11 12 10 8 7 7
1 2 2 2 3 5 4 3 4 4 3 3 3 3 4 4 2 3 2 4 6 5 5 4 5 7 7 5 3 4 4 6 7 6 6 7 5 1 5 8 8 8 10 8 5 8 9 9 11 10 11 11 9 7
1 0 1 5 5 3 3 3 3 1 1 1 3 3 2 2 1 1 3 6 7 5 4 4 6 6 6 6 4 4 3 4 7 6 7 4 5 1 6 5 4 9 9 10 11 9 12 12 13 12 13 11 8 7
5 2 5 5 4 3 1 1 2 2 1 1 1 1 1 1 1 2 5 6 6 5 5 5 5 6 6 6 6 5 4 4 6 7 5 3 7 2 5 11 5 9 9 9 11 13 13 14 13 12 10 8 7 7
2 2 5 3 3 3 4 2 4 6 3 3 1 2 1 1 1 0 4 6 6 5 5 5 2 5 4 6 6 7 7 6 7 7 6 6 9 5 4 8 9 7 8 9 7 9 11 13 12 11 10 10 10 10
1 3 2 3 4 7 9 4 2 3 1 3 6 6 3 1 2 2 4 7 8 7 6 5 4 2 5 3 5 2 2 3 6 5 8 6 6 9 7 5 11 10 11 7 8 9 14 15 9 7 6 3 10 9
2 2 5 2 3 5 6 7 6 5 3 4 6 9 8 4 4 4 4 5 7 7 7 6 6 5 5 4 4 3 2 3 2 5 5 5 5 6 7 5 8 12 13 8 7 10 14 16 11 10 9 10 7 7
Wind_Direction
202 190 187 185 184 184 184 185 184 180 173 171 172 175 181 188 192 215 14 130 247 277 270 283 297 306 298 302 262 72 146 174 242 237 259 258 263 262 267 264 268 274 263 230 240 253 267 301 280 313 50 15 358 349
205 194 184 183 180 180 178 180 181 176 169 169 168 171 176 183 185 201 232 175 230 262 12 18 335 335 318 347 328 315 262 54 2 277 252 278 275 266 268 265 258 253 249 267 285 276 310 314 321 332 315 306 333 358
187 183 183 180 177 175 175 175 179 174 165 163 163 167 172 177 182 207 321 156 204 254 267 241 226 232 240 256 291 282 207 336 170 332 309 280 266 296 281 277 294 286 303 292 287 278 276 285 332 320 312 333 339 354
191 190 186 178 172 168 171 171 175 169 159 160 160 163 169 174 175 202 212 210 278 306 267 121 113 163 195 214 234 246 290 321 308 271 267 270 277 289 282 293 289 290 319 306 294 299 301 301 324 331 335 336 335 331
187 186 178 170 165 164 165 164 168 159 154 155 157 160 164 168 163 214 233 234 291 301 311 90 181 187 160 222 233 235 242 247 265 256 250 252 265 276 276 276 268 274 284 281 284 308 305 306 315 314 317 313 309 302
191 176 167 161 158 160 158 160 158 147 149 150 157 157 159 156 170 191 188 197 208 234 278 246 89 141 190 204 213 226 229 228 249 258 256 264 271 282 270 268 277 271 265 261 276 279 279 297 295 298 295 293 290 285
177 160 154 150 151 152 153 155 143 144 148 150 151 152 157 160 188 330 18 16 325 223 258 249 204 146 174 189 201 217 209 242 255 267 250 252 262 242 258 264 266 273 280 284 288 292 290 290 287 287 285 282 279 278
146 143 143 144 145 148 144 141 140 143 141 139 140 136 124 129 141 208 102 26 320 211 259 260 119 165 177 215 205 192 173 215 226 258 272 255 259 254 257 259 260 260 265 264 263 263 264 261 260 259 258 262 268 271
134 137 139 139 139 139 137 137 136 135 132 129 123 121 123 221 187 98 92 149 145 291 315 293 265 118 164 122 294 112 182 249 235 230 237 249 242 238 251 259 259 264 266 271 281 286 293 288 282 274 269 263 274 276
130 134 136 137 136 134 134 132 130 131 130 131 138 172 152 133 112 131 148 170 196 213 213 254 272 208 182 165 172 252 187 234 268 251 233 217 244 251 254 259 260 260 262 263 264 276 295 312 294 298 293 293 295 288
128 129 130 130 128 128 129 130 133 136 138 169 158 74 100 154 182 174 171 195 195 208 214 225 246 252 157 177 174 213 210 264 260 270 285 265 258 269 321 347 345 273 276 293 282 267 292 306 298 296 294 290 284 275
120 123 123 125 127 129 131 136 140 149 164 136 101 124 142 164 213 175 180 223 194 239 166 198 186 224 159 226 222 187 228 230 261 333 265 257 277 335 345 188 220 284 298 299 298 295 304 302 307 301 292 279 268 262
116 119 122 125 127 132 136 147 165 117 126 134 128 127 135 150 186 192 189 181 207 202 154 156 131 177 219 281 230 230 228 243 295 227 244 269 19 352 348 324 329 339 335 329 318 309 315 300 295 289 283 294 279 258
112 116 120 126 132 139 146 163 247 175 171 127 110 146 183 182 205 210 187 186 136 161 187 172 161 152 214 212 247 243 241 227 232 241 266 22 349 322 314 332 330 323 330 311 311 315 300 291 290 289 277 276 272 267
112 113 115 118 123 132 133 114 92 160 263 200 151 169 209 198 197 195 184 101 104 103 92 90 80 167 210 245 259 254 229 238 252 318 3 336 323 336 333 333 316 327 323 315 298 296 293 306 331 331 326 312 315 280
112 109 107 108 115 118 122 146 164 237 256 197 251 231 179 222 164 178 133 163 130 109 108 136 182 193 210 226 217 233 262 276 21 2 309 312 350 342 339 337 332 340 310 306 312 296 353 12 18 15 25 57 50 94
110 113 117 111 107 96 19 1 128 229 255 198 212 275 285 165 195 330 52 46 147 128 174 177 216 212 264 267 242 241 310 2 345 331 328 332 340 343 341 330 340 328 322 336 335 342 39 32 44 53 63 67 72 81
110 126 125 131 148 156 141 230 254 217 218 237 267 180 195 264 115 357 107 150 170 185 193 220 284 244 252 276 341 9 351 320 328 328 325 319 352 359 358 345 339 342 339 352 349 24 45 57 61 67 69 71 69 68
130 139 156 172 346 286 171 180 196 229 235 218 217 245 187 253 174 172 153 155 146 131 237 260 243 243 255 312 359 332 300 317 331 318 319 332 29 8 356 348 349 302 312 357 354 8 111 108 104 101 89 91 89 87
103 106 85 30 329 277 202 122 223 283 309 323 307 226 233 259 312 20 117 145 163 176 188 232 235 267 276 305 335 332 334 332 318 308 317 350 14 20 26 276 296 338 19 1 338 108 136 152 155 170 141 128 118 112
142 117 168 296 343 323 317 87 296 354 342 331 328 318 288 320 313 314 40 68 160 188 230 234 269 285 262 301 309 331 302 332 291 305 319 333 20 359 341 302 348 29 21 339 4 47 101 99 113 119 125 115 103 105
101 180 267 135 315 345 9 307 25 82 264 305 314 280 288 259 227 198 119 174 214 222 230 267 276 332 321 310 314 321 304 312 300 291 302 51 351 332 327 320 41 57 49 0 354 24 63 52 34 46 69 97 100 121
154 23 44 12 20 301 267 340 245 198 239 208 165 207 217 221 183 146 199 211 228 211 219 237 336 310 271 279 289 285 278 281 284 297 303 70 18 307 360 34 119 80 74 56 33 28 70 62 48 52 45 90 109 112
346 161 174 193 224 287 15 210 236 271 282 241 226 137 134 141 147 213 184 177 102 118 163 180 205 232 212 296 267 262 274 285 329 303 18 56 51 336 321 294 89 97 76 88 87 68 75 80 65 63 72 71 65 65
168 176 194 193 204 227 225 210 196 202 227 341 24 66 14 231 213 170 120 103 119 148 163 180 193 238 272 271 292 284 274 267 283 356 356 75 203 231 359 65 65 94 108 90 84 100 100 98 91 69 66 68 60 55
268 165 259 11 163 287 359 34 11 304 267 225 73 220 247 245 239 115 79 132 126 79 21 340 237 217 254 261 308 2 342 332 338 23 339 2 8 42 31 33 38 39 74 102 100 99 102 104 109 94 84 81 56 68
25 10 356 314 323 325 352 9 353 7 15 13 12 317 272 254 60 63 33 42 20 9 336 319 310 289 286 309 315 311 340 332 1 5 329 337 342 85 86 52 47 41 48 94 109 112 112 114 113 112 112 94 74 69
113 170 327 19 66 42 35 27 20 21 5 346 288 299 22 29 29 354 359 328 304 290 278 265 251 263 269 287 296 301 307 310 304 289 273 267 280 100 87 86 84 67 62 30 65 96 114 121 123 121 122 117 102 77
65 132 71 55 82 79 47 13 5 328 267 273 319 25 27 59 33 299 295 300 299 277 242 233 228 228 232 238 250 271 288 266 283 250 235 226 149 96 121 133 115 95 86 69 44 58 103 110 120 125 126 121 111 98
83 99 108 74 52 61 32 213 272 245 202 336 75 159 191 185 208 277 334 333 329 316 297 250 210 201 198 212 203 210 241 248 253 290 298 10 341 285 99 112 121 96 91 89 96 95 93 97 103 111 114 115 115 119
119 98 93 108 145 164 163 170 88 57 37 6 345 198 133 94 98 284 347 338 331 333 353 357 279 207 195 208 220 196 202 200 228 250 280 304 304 281 117 126 112 94 100 99 113 114 118 114 119 122 128 138 153 161
108 112 129 165 138 155 151 136 120 138 99 44 22 22 133 146 33 355 0 345 346 347 338 325 318 290 247 222 251 214 259 180 201 209 228 255 334 0 342 29 123 114 109 110 114 118 124 124 111 91 64 31 175 129
234 154 131 201 154 187 174 173 180 162 116 57 39 26 27 44 16 350 333 346 330 312 314 300 277 250 256 260 187 170 232 218 147 59 66 24 347 331 314 354 114 112 114 124 124 132 127 129 117 112 102 78 83 135